This is the latest recevied weather packets stored in our database for station/object KE1THD. If no packets are shown the sender has not sent any weather packets the latest 10 day(s).
| Time | Temp. | Humidity | Pressure | Rain* | Wind** | Luminosity | Snow |
|---|---|---|---|---|---|---|---|
| 1778080201 | 10° C | 39% | 1016.3 hPa | 0 mm | - | 413 W/m² | - |
| 1778079897 | 10° C | 40% | 1016.1 hPa | 0 mm | - | 219 W/m² | - |
| 1778079594 | 10° C | 40% | 1016.2 hPa | 0 mm | - | 636 W/m² | - |
| 1778079290 | 9.44° C | 42% | 1016.3 hPa | 0 mm | - | 605 W/m² | - |
| 1778078988 | 9.44° C | 41% | 1016.3 hPa | 0 mm | - | 344 W/m² | - |
| 1778078684 | 9.44° C | 42% | 1016 hPa | 0 mm | - | 405 W/m² | - |
| 1778078383 | 9.44° C | 41% | 1016.1 hPa | 0 mm | - | 252 W/m² | - |
| 1778078080 | 9.44° C | 42% | 1016.1 hPa | 0 mm | - | 404 W/m² | - |
| 1778077778 | 8.89° C | 44% | 1016 hPa | 0 mm | - | 672 W/m² | - |
| 1778077475 | 8.89° C | 44% | 1016.1 hPa | 0 mm | - | 567 W/m² | - |
| 1778077173 | 8.33° C | 44% | 1016 hPa | 0 mm | - | 201 W/m² | - |
| 1778076871 | 8.89° C | 45% | 1015.9 hPa | 0 mm | - | 188 W/m² | - |
| 1778076570 | 8.33° C | 46% | 1015.9 hPa | 0 mm | - | 210 W/m² | - |
| 1778076266 | 8.33° C | 49% | 1016 hPa | 0 mm | - | 212 W/m² | - |
| 1778075963 | 8.33° C | 50% | 1015.9 hPa | 0 mm | - | 204 W/m² | - |
| 1778075660 | 8.33° C | 49% | 1015.9 hPa | 0 mm | - | 193 W/m² | - |
| 1778075356 | 7.78° C | 49% | 1016 hPa | 0 mm | - | 198 W/m² | - |
| 1778075052 | 7.78° C | 50% | 1015.8 hPa | 0 mm | - | 205 W/m² | - |
| 1778074749 | 7.78° C | 50% | 1015.9 hPa | 0 mm | - | 222 W/m² | - |
| 1778074446 | 7.78° C | 51% | 1015.9 hPa | 0 mm | - | 211 W/m² | - |
| 1778074143 | 7.78° C | 54% | 1016.1 hPa | 0 mm | - | 156 W/m² | - |
| 1778073840 | 7.22° C | 56% | 1015.8 hPa | 0 mm | - | 144 W/m² | - |
| 1778073538 | 7.22° C | 57% | 1015.8 hPa | 0 mm | - | 160 W/m² | - |
| 1778073234 | 7.22° C | 57% | 1015.6 hPa | 0 mm | - | 170 W/m² | - |
| 1778072931 | 6.67° C | 58% | 1016 hPa | 0 mm | - | 142 W/m² | - |
* Rain latest hour (hover to see other rain measurements)
** Current wind speed in m/s (hover to see current wind gust speed)